Regional Weather Roundup
Issued by NWS Upton, NY

Current Version | Previous Version | Graphics & Text | Print | Product List | Glossary Off
Versions: 1 2 3 4 5 6 7 8 9 10 11 12 13 14 15 16 17 18 19 20 21 22 23 24 25 26 27 28 29 30 31 32 33 34 35 36 37 38 39 40 41 42 43 44 45 46 47 48 49 50

000
ASUS41 KOKX 261805
RWROKX

REGIONAL WEATHER ROUNDUP
NATIONAL WEATHER SERVICE NEW YORK NY
100 PM EST WED NOV 26 2014

NOTE: "FAIR" INDICATES FEW OR NO CLOUDS BELOW 12,000 FEET WITH NO
SIGNIFICANT WEATHER AND/OR OBSTRUCTIONS TO VISIBILITY.

NYZ071-072-176-178-NJZ106-104-261900-
NEW YORK CITY METRO AREA


CITY           SKY/WX    TMP DP  RH WIND       PRES   REMARKS
CENTRAL PARK   LGT SNOW  35  31  85 NE6       30.04S FOG     WCI  30
LAGUARDIA APRT LGTSLEET  34  32  93 N10G16    30.00F FOG     WCI  26
KENNEDY INTL   LGTSLEET  36  33  89 N13       30.00F FOG     WCI  27
NEWARK/LIBERTY LGT SNOW  33  32  96 N12       30.02F VSB 1   WCI  24
BRNX BOT. GARD   N/A     32  32 100 NW6       30.04R WCI  26
TETERBORO      LGT SNOW  34  31  88 N6        30.03S VSB 3/4 WCI  29
$$

NYZ177-179-078>081-261900-
LONG ISLAND NEW YORK

CITY           SKY/WX    TMP DP  RH WIND       PRES   REMARKS
FARMINGDALE    NOT AVBL
ISLIP          RAIN      39  36  89 N15       29.98F FOG     WCI  31
SHIRLEY        RAIN      39  37  92 N12G22    30.01R FOG     WCI  32
WESTHAMPTON    RAIN      40  37  89 NE22G29   29.94F FOG     WCI  30
MONTAUK POINT    N/A     43  40  89 NE15G25   29.95F
$$

NYZ052-065-067-261900-
HUDSON VALLEY

CITY           SKY/WX    TMP DP  RH WIND       PRES   REMARKS
WHITE PLAINS   LGT SNOW  33  32  96 N8        30.01R VSB 1   WCI  26
NEWBURGH       SNOW      32  32 100 NE12      30.05S VSB 1/2 WCI  23
MONTGOMERY     SNOW      33  31  92 N10       30.04S VSB 1/2 WCI  25
POUGHKEEPSIE   SNOW      34  31  88 N7        30.06S VSB 1/4 WCI  28
ALBANY         SNOW      33  31  92 N6        30.13F VSB 1/2 WCI  28
$$

NJZ001-105-106-008-010-013-015-019>022-104-261900-
NEW JERSEY

CITY           SKY/WX    TMP DP  RH WIND       PRES   REMARKS
NEWARK/LIBERTY LGT SNOW  33  32  96 N12       30.02F VSB 1   WCI  24
TETERBORO      LGT SNOW  34  31  88 N6        30.03S VSB 3/4 WCI  29
CALDWELL       SNOW      32  30  92 NE5       30.03F VSB 1/2 WCI  27
MORRISTOWN     NOT AVBL
SOMERVILLE     SNOW      33  31  92 N6        29.99F VSB 1/2 WCI  28
SUSSEX         HVY SNOW  33  31  92 NE8       30.02F VSB 1/4 WCI  26
ANDOVER          N/A     32  32 100 NE8       30.02F WCI  25
TRENTON        RAIN      33  31  92 N12       29.94F FOG     WCI  24
MILLVILLE      RAIN      38  36  92 N17       29.87F FOG     WCI  28
ATLANTIC CITY  RAIN      38  37  97 N21G28    29.86F FOG     WCI  28
WRIGHTSTOWN    LGTSLEET  35  34  99 N18       29.90F FOG     WCI  24
TOMS RIVER     CLOUDY    37  36  93 N8        29.94F WCI  31
BELMAR         CLOUDY    37  30  75 N15G23    29.94F WCI  28
$$

PAZ047>061-062-071-261900-
EASTERN PENNSYLVANIA

CITY           SKY/WX    TMP DP  RH WIND       PRES   REMARKS
PHILADELPHIA   LGT SNOW  36  32  85 N18       29.94F FOG     WCI  26
ALLENTOWN      SNOW      34  30  86 NE7       29.98F VSB 1/2 WCI  28
SCRANTON       SNOW      33  31  92 VRB7      30.01F VSB 1/4 WCI  27
$$

CTZ002-004>006-009-010-012-RIZ004-006-007-MAZ004-011-015-261900-
SOUTHERN NEW ENGLAND
 IN CT

CITY           SKY/WX    TMP DP  RH WIND       PRES   REMARKS
BRADLEY INTL   LGT SNOW  34  31  88 N13       30.04F VSB 3/4 WCI  25
HARTFORD       SNOW      33  31  92 NE9       30.02F VSB 1/2 WCI  25
DANBURY        LGT SNOW  33  30  88 CALM      30.03F VSB 3/4
WTRBRY/OXFORD  LGT SNOW  34  27  75 NE14      29.99F VSB 3/4 WCI  24
BRIDGEPORT     RAIN      36  34  92 N9        30.04R FOG     WCI  29
MERIDEN        LGT SNOW  33  31  92 N8        30.02F VSB 3/4 WCI  26
NEW HAVEN      RAIN      36  32  85 N10       30.01F FOG     WCI  28
CHESTER        HVY RAIN  34  34 100 NE6       29.99R WCI  29
GROTON         HVY RAIN  36  36 100 N15       29.96F FOG     WCI  27
WILLIMANTIC    RAIN      35  33  92 N6        30.03F FOG     WCI  30

 IN RI

CITY           SKY/WX    TMP DP  RH WIND       PRES   REMARKS
PROVIDENCE     HVYSLEET  34  33  96 N17       30.00F FOG     WCI  23
BLOCK ISLAND   CLOUDY    43  37  81 NE22G31   29.92F
WESTERLY       RAIN      38  36  92 N12G20    29.99F FOG     WCI  30

 IN MA

CITY           SKY/WX    TMP DP  RH WIND       PRES   REMARKS
BOSTON         RAIN      39  37  92 NE15      30.08F FOG     WCI  31
WORCESTER      LGT SNOW  31  31 100 N10G22    30.01F VSB 3/4 WCI  22
WESTFIELD      LGT SNOW  34  31  88 N10       30.07F VSB 1   WCI  26
PROVINCETOWN   CLOUDY    43  39  87 NE17G23   30.06F
NANTUCKET      RAIN      45  42  89 NE15      29.98F FOG
$$

ANZ330-335-338-340-345-350-353-355-261900-
COASTAL MARINE OBSERVATIONS


STATION/POSITION TIME  SKY/WX   TEMP    WIND        PRES    VSBY  WAVE
                                AIR SEA DIR/SP/G                  HT/PER
                 (UTC)          (F)     (DEG/KT/KT) (MB)    (MI)  (FT/S)
NY HARB ENTRANCE 1800            41 54  360/ 25/ 29 1014.0          5/ 5
4S FIRE IS       1800               53                N/A           4/ 5
20S FIRE ISLAND  1800            44 55   10/ 29/ 35 1012.3          6/ 6
23SW MTP         1800                                 N/A           7/ 6
HUDSON CANYON    1800            51 59   40/ 31     1005.8
EXECUTION ROCKS  1800            36 48  360/ 12/ 16   N/A
WESTERN LI SOUND 1700            37      40/ 17/ 21   N/A           2/ 4
CENTRAL LI SOUND 1700            39 50   40/ 21/ 25   N/A           2/ 2
EASTERN LI SOUND 1700            40 52   40/ 17/ 23   N/A
ROBBINS REEF     1800            34     360/ 14/ 18 1015.3
$$


>>>>>>>>>>>>>>>>>>>>>>>>>>>> KEY <<<<<<<<<<<<<<<<<<<<<<<<<<<
>                                                          <
>     SKY/WX - SKY CONDITION/PRESENT WEATHER               <
>     TMP    - TEMPERATURE IN FAHRENHEIT                   <
>     DP     - DEWPOINT IN FAHRENHEIT                      <
>     RH     - RELATIVE HUMIDITY IN PERCENT                <
>     WIND   - DIRECTION AND SPEED IN MPH                  <
>     PRES   - MEAN SEA LEVEL PRESSURE IN INCHES OF HG     <
>     WCI    - WIND CHILL INDEX                            <
>     VSB    - VISIBILITY IN MILES                         <
>     HX     - HEAT INDEX                                  <
>     TC     - TEMPERATURE IN CELSIUS                      <
>     VRB    - VARIABLE WIND DIRECTION                     <
>                                                          <
>>>>>>>>>>>>>>>>>>>>>>>>>>>> KEY <<<<<<<<<<<<<<<<<<<<<<<<<<<





USA.gov is the U.S. government's official web portal to all federal, state and local government web resources and services.